FW0158 Weather Reports


time (UTC)temp
C
wind
direction
speed
KPH
gust
KPH
rain 1hr
cm
rain 24hr
cm
rain mn
cm
humidity
%
barometer
mb
20260510192308 28 215 3.2 12.9 0.00 0.00 0.00 39 1016.2
20260510191411 28 190 1.6 6.4 0.00 0.00 0.00 38 1016.2
20260510190305 27 339 3.2 12.9 0.00 0.00 0.00 38 1016.6
20260510184521 27 266 4.8 11.3 0.00 0.00 0.00 39 1016.6
20260510183842 27 194 4.8 11.3 0.00 0.00 0.00 39 1016.6
20260510182521 26 205 4.8 16.1 0.00 0.00 0.00 41 1016.6
20260510181841 27 193 4.8 11.3 0.00 0.00 0.00 42 1016.6
20260510181202 27 201 4.8 11.3 0.00 0.00 0.00 45 1016.9
20260510175841 28 358 3.2 8.0 0.00 0.00 0.00 38 1016.9
20260510173841 26 311 8.0 17.7 0.00 0.00 0.00 50 1016.9
20260510173629 26 192 3.2 11.3 0.00 0.00 0.00 53 1016.9
20260510171841 26 176 4.8 12.9 0.00 0.00 0.00 52 1017.3
20260510171202 26 288 4.8 12.9 0.00 0.00 0.00 55 1017.3
20260510170733 25 287 6.4 12.9 0.00 0.00 0.00 55 1017.3
20260510170054 25 274 6.4 12.9 0.00 0.00 0.00 55 1017.6
20260510165201 25 241 4.8 9.7 0.00 0.00 0.00 59 1017.6
20260510164735 26 175 3.2 8.0 0.00 0.00 0.00 62 1017.6
20260510163841 26 169 3.2 8.0 0.00 0.00 0.00 61 1017.6
20260510163411 26 228 1.6 6.4 0.00 0.00 0.00 63 1017.6
20260510161841 25 137 3.2 6.4 0.00 0.00 0.00 65 1017.6
20260510161413 24 179 3.2 11.3 0.00 0.00 0.00 67 1017.6
20260510160307 23 329 3.2 6.4 0.00 0.00 0.00 70 1017.3
20260510155201 23 339 1.6 8.0 0.00 0.00 0.00 72 1017.3
20260510153842 22 315 4.8 9.7 0.00 0.00 0.00 77 1017.6
20260510153412 22 314 4.8 8.0 0.00 0.00 0.00 78 1017.6
20260510151841 21 284 1.6 8.0 0.00 0.00 0.00 80 1017.3
20260510151201 21 266 4.8 8.0 0.00 0.00 0.00 82 1017.6
20260510150521 20 345 1.6 4.8 0.00 0.00 0.00 82 1017.6
20260510145201 19 351 1.6 4.8 0.00 0.00 0.00 86 1017.6
20260510144521 20 360 1.6 4.8 0.00 0.00 0.00 84 1017.6
20260510143841 19 125 1.6 6.4 0.00 0.00 0.00 88 1017.3
20260510142733 18 157 1.6 4.8 0.00 0.00 0.00 89 1017.3
20260510142054 18 281 0.0 4.8 0.00 0.00 0.00 92 1017.3
20260510141414 17 188 1.6 4.8 0.00 0.00 0.00 93 1017.3
20260510140521 17 233 1.6 4.8 0.00 0.00 0.00 94 1017.3
20260510135841 17 245 1.6 6.4 0.00 0.00 0.00 95 1016.9
20260510134945 17 213 1.6 4.8 0.00 0.00 0.00 98 1017.3
20260510134052 16 117 1.6 4.8 0.00 0.00 0.00 100 1017.3
20260510133202 16 239 1.6 4.8 0.00 0.00 0.00 100 1017.3
20260510131841 16 129 1.6 3.2 0.00 0.00 0.00 100 1017.3
20260510131415 15 333 1.6 3.2 0.00 0.00 0.00 100 1017.3
20260510130521 16 356 1.6 3.2 0.00 0.00 0.00 100 1017.3
20260510125412 15 190 1.6 3.2 0.00 0.00 0.00 100 1016.9
20260510124521 15 28 1.6 3.2 0.00 0.00 0.00 100 1016.9
20260510124053 14 119 1.6 3.2 0.00 0.00 0.00 100 1016.9
20260510122521 13 104 1.6 4.8 0.00 0.00 0.00 100 1016.9
20260510121842 13 23 1.6 6.4 0.00 0.00 0.00 100 1016.9
20260510120522 13 26 4.8 8.0 0.00 0.00 0.00 100 1016.9
20260510115202 13 212 1.6 4.8 0.00 0.00 0.00 100 1015.9
20260510114946 12 229 1.6 4.8 0.00 0.00 0.00 100 1015.9
20260510112522 12 339 0.0 1.6 0.00 0.00 0.00 100 1015.6
20260510111841 12 220 0.0 1.6 0.00 0.00 0.00 100 1015.6
20260510111202 12 325 0.0 1.6 0.00 0.00 0.00 100 1015.6
20260510110052 12 262 1.6 1.6 0.00 0.00 0.00 100 1015.2
20260510105201 12 2 0.0 1.6 0.00 0.00 0.00 100 1015.2
20260510104522 12 89 0.0 1.6 0.00 0.00 0.00 100 1015.2
20260510103842 12 12 0.0 1.6 0.00 0.00 0.00 100 1015.2
20260510103202 12 32 1.6 3.2 0.00 0.00 0.00 100 1014.9
20260510102731 12 47 1.6 1.6 0.00 0.00 0.00 100 1014.9
20260510102051 12 28 0.0 3.2 0.00 0.00 0.00 100 1014.9
20260510101201 12 353 1.6 1.6 0.00 0.00 0.00 100 1014.9
20260510100521 13 324 0.0 1.6 0.00 0.00 0.00 100 1014.9
20260510100053 12 174 1.6 1.6 0.00 0.00 0.00 100 1014.5
20260510095201 12 44 1.6 1.6 0.00 0.00 0.00 100 1014.5
20260510094948 12 351 1.6 1.6 0.00 0.00 0.00 100 1014.5
20260510094055 12 30 1.6 1.6 0.00 0.00 0.00 100 1014.5
20260510093411 13 78 1.6 1.6 0.00 0.00 0.00 100 1014.2
20260510091842 13 289 0.0 1.6 0.00 0.00 0.00 100 1014.2
20260510091201 13 26 1.6 1.6 0.00 0.00 0.00 100 1014.2
20260510090522 13 44 1.6 3.2 0.00 0.00 0.00 100 1014.5
20260510084521 13 287 0.0 3.2 0.00 0.00 0.00 100 1014.2
20260510083842 13 155 1.6 3.2 0.00 0.00 0.00 100 1014.2
20260510082521 13 154 1.6 3.2 0.00 0.00 0.00 100 1014.2
20260510080734 13 274 0.0 1.6 0.00 0.00 0.00 99 1013.8
20260510075841 13 341 1.6 1.6 0.00 0.00 0.00 98 1013.8
20260510075415 13 29 0.0 3.2 0.00 0.00 0.00 98 1013.8
20260510074731 13 14 1.6 3.2 0.00 0.00 0.00 97 1013.8
20260510073842 13 93 1.6 1.6 0.00 0.00 0.00 98 1013.8
20260510072521 14 24 1.6 3.2 0.00 0.00 0.00 97 1013.8
20260510072306 14 5 1.6 3.2 0.00 0.00 0.00 94 1013.8
20260510071414 15 145 1.6 1.6 0.00 0.00 0.00 98 1013.8
20260510065201 14 16 0.0 1.6 0.00 0.00 0.00 99 1013.8
20260510064521 14 6 0.0 1.6 0.00 0.00 0.00 99 1013.8
20260510063842 14 331 0.0 1.6 0.00 0.00 0.00 98 1013.8
20260510063413 14 41 0.0 3.2 0.00 0.00 0.00 98 1013.8
20260510062054 15 92 0.0 1.6 0.00 0.00 0.00 99 1013.8
20260510061201 15 54 0.0 1.6 0.00 0.00 0.00 99 1013.8
20260510060521 15 70 1.6 1.6 0.00 0.00 0.00 99 1013.8
20260510055412 15 11 1.6 1.6 0.00 0.00 0.00 97 1013.8
20260510053842 15 121 1.6 3.2 0.00 0.00 0.00 97 1013.8
20260510052734 15 357 1.6 3.2 0.00 0.00 0.00 98 1013.8
20260510051841 15 39 1.6 3.2 0.00 0.00 0.00 98 1013.8
20260510051624 15 7 1.6 3.2 0.00 0.00 0.00 95 1013.8
20260510050731 16 50 1.6 3.2 0.00 0.00 0.00 96 1013.8
20260510050052 16 211 0.0 3.2 0.00 0.00 0.00 96 1013.8
20260510045412 16 335 1.6 4.8 0.00 0.00 0.00 93 1013.8
20260510043201 17 253 3.2 4.8 0.00 0.00 0.00 93 1013.8
20260510042735 17 204 1.6 4.8 0.00 0.00 0.00 93 1013.8
20260510042050 17 212 1.6 4.8 0.00 0.00 0.00 94 1013.8
20260510041411 17 209 1.6 3.2 0.00 0.00 0.00 94 1013.8
20260510040732 17 283 1.6 3.2 0.00 0.00 0.00 93 1013.8
20260510035841 17 202 0.0 1.6 0.00 0.00 0.00 93 1013.8
20260510034521 17 213 1.6 3.2 0.00 0.00 0.00 94 1014.2
20260510033841 17 285 1.6 3.2 0.00 0.00 0.00 93 1014.2
20260510032944 17 308 3.2 3.2 0.00 0.00 0.00 91 1014.2
20260510032306 17 338 1.6 3.2 0.00 0.00 0.00 90 1013.8
20260510031625 17 5 1.6 1.6 0.00 0.00 0.00 88 1013.8
20260510030306 18 139 1.6 6.4 0.00 0.00 0.00 87 1013.8
20260510025414 18 191 3.2 4.8 0.00 0.00 0.00 88 1013.8
20260510024521 17 222 0.0 1.6 0.00 0.00 0.00 89 1013.5
20260510023841 18 300 1.6 1.6 0.00 0.00 0.00 88 1013.5
20260510023201 18 17 1.6 1.6 0.00 0.00 0.00 87 1013.5
20260510022522 18 33 1.6 3.2 0.00 0.00 0.00 86 1013.5
20260510021412 18 38 1.6 3.2 0.00 0.00 0.00 82 1013.1
20260510020733 19 223 1.6 3.2 0.00 0.00 0.00 82 1013.1
20260510020054 19 279 1.6 4.8 0.00 0.00 0.00 81 1012.8
20260510015201 19 285 3.2 4.8 0.00 0.00 0.00 80 1012.4
20260510012732 20 215 1.6 1.6 0.00 0.00 0.00 74 1012.1
20260510012519 20 221 0.0 3.2 0.00 0.00 0.00 75 1011.8
20260510011201 21 91 1.6 3.2 0.00 0.00 0.00 72 1011.8
20260510010521 21 18 0.0 1.6 0.00 0.00 0.00 70 1011.4
20260510005841 21 309 0.0 1.6 0.00 0.00 0.00 68 1011.4
20260510005202 22 283 1.6 1.6 0.00 0.00 0.00 65 1011.4
20260510003625 23 238 1.6 3.2 0.00 0.00 0.00 61 1011.4
20260510002521 24 230 1.6 3.2 0.00 0.00 0.00 58 1011.1
20260510002053 24 280 1.6 4.8 0.00 0.00 0.00 58 1011.1
20260510001201 25 254 3.2 4.8 0.00 0.00 0.00 56 1011.1
20260509235841 25 251 4.8 6.4 0.00 0.00 0.00 55 1011.1
20260509235837 25 302 4.8 8.0 0.00 0.00 0.00 53 1011.1
20260509233841 25 306 4.8 9.7 0.00 0.00 0.00 51 1010.7
20260509233202 25 295 6.4 9.7 0.00 0.00 0.00 51 1010.7
20260509232521 25 298 4.8 9.7 0.00 0.00 0.00 52 1011.1
20260509231841 25 303 4.8 9.7 0.00 0.00 0.00 50 1011.1
20260509230521 25 311 4.8 9.7 0.00 0.00 0.00 49 1010.7
20260509225842 25 302 4.8 8.0 0.00 0.00 0.00 52 1010.7
20260509224732 25 247 4.8 11.3 0.00 0.00 0.00 53 1010.7
20260509223842 25 249 4.8 9.7 0.00 0.00 0.00 52 1010.7
20260509223200 25 273 6.4 12.9 0.00 0.00 0.00 52 1010.7
20260509221841 25 237 6.4 14.5 0.00 0.00 0.00 52 1010.7
20260509221202 25 258 3.2 12.9 0.00 0.00 0.00 52 1010.7
20260509220944 25 279 8.0 14.5 0.00 0.00 0.00 50 1010.7
20260509220051 25 250 6.4 14.5 0.00 0.00 0.00 51 1010.4
20260509214946 25 262 8.0 12.9 0.00 0.00 0.00 50 1010.4
20260509213842 25 282 4.8 16.1 0.00 0.00 0.00 50 1010.4
20260509213414 25 304 9.7 16.1 0.00 0.00 0.00 48 1010.4
20260509212522 25 288 8.0 16.1 0.00 0.00 0.00 46 1010.4
20260509210521 25 307 9.7 16.1 0.00 0.00 0.00 46 1010.4
20260509205841 25 326 6.4 16.1 0.00 0.00 0.00 46 1010.7
20260509205413 26 327 8.0 14.5 0.00 0.00 0.00 46 1010.7
20260509204947 26 289 6.4 11.3 0.00 0.00 0.00 46 1010.7
20260509204307 25 248 4.8 16.1 0.00 0.00 0.00 47 1010.7
20260509202051 25 299 9.7 19.3 0.00 0.00 0.00 45 1011.1
20260509200732 26 273 11.3 22.5 0.00 0.00 0.00 44 1011.1
20260509195840 26 352 4.8 20.9 0.00 0.00 0.00 45 1011.1
20260509195200 25 302 12.9 20.9 0.00 0.00 0.00 44 1011.1
20260509194521 26 269 9.7 17.7 0.00 0.00 0.00 44 1011.1
20260509193410 25 287 8.0 16.1 0.00 0.00 0.00 46 1011.1